Punkttermin-Prognose für Kampen / Sylt
Modell: MOSMIX (Deutscher Wetterdienst)
Modelllaufzeit: 11 UTC
Aktualisierung: stündlich
Montag - 27.05.2019
| Wetter - | Temperaturen | Wind | Niederschlag | Druck | Sonne
Zeit GZ | Bewölkung | TT MAX MIN TG TM | DD FF FX1 | RR1 RR24 | PPPP | SS1 SS24
02:00 Uhr | --- | --- --- --- --- --- | --- --- --- | --- | --- | ---
03:00 Uhr | --- | --- --- --- --- --- | --- --- --- | --- | --- | ---
04:00 Uhr | --- | --- --- --- --- --- | --- --- --- | --- | --- | ---
05:00 Uhr | --- | --- --- --- --- --- | --- --- --- | --- | --- | ---
06:00 Uhr | --- | --- --- --- --- --- | --- --- --- | --- | --- | ---
07:00 Uhr | --- | --- --- --- --- --- | --- --- --- | --- | --- | ---
08:00 Uhr | --- | --- --- --- --- --- | --- --- --- | --- | --- | ---
09:00 Uhr | --- | --- --- --- --- --- | --- --- --- | --- | --- | ---
10:00 Uhr | --- | --- --- --- --- --- | --- --- --- | --- | --- | ---
11:00 Uhr | --- | --- --- --- --- --- | --- --- --- | --- | --- | ---
12:00 Uhr | --- | --- --- --- --- --- | --- --- --- | --- | --- | ---
13:00 Uhr | --- | --- --- --- --- --- | --- --- --- | --- | --- | ---
14:00 Uhr | stark bewölkt | 13 --- --- 16 --- | SW 35 52 | 0.0 | 1005 | 0.3
15:00 Uhr | stark bewölkt | 13 --- --- 16 --- | SW 35 54 | 0.0 | 1005 | 0.3
16:00 Uhr | stark bewölkt | 13 --- --- 16 --- | SW 37 56 | 0.0 | 1005 | 0.3
17:00 Uhr | stark bewölkt | 13 --- --- 15 --- | SW 37 56 | 0.0 | 1005 | 0.3
18:00 Uhr | stark bewölkt | 13 --- --- 14 --- | SW 37 56 | 0.0 | 1004 | 0.2
19:00 Uhr | stark bewölkt | 12 --- --- 13 --- | SW 37 57 | 0.0 | 1004 | 0.2
20:00 Uhr | stark bewölkt | 12 15 --- 12 --- | SW 35 54 | 0.0 | 1004 | 0.2
21:00 Uhr | wolkig | 12 --- --- 11 --- | SW 33 52 | 0.0 | 1004 | 0.1
22:00 Uhr | stark bewölkt | 11 --- --- 11 --- | SW 32 50 | 0.0 | 1004 | 0.1
23:00 Uhr | stark bewölkt | 11 --- --- 10 --- | W 30 46 | 0.0 | 1004 | 0.0
00:00 Uhr | stark bewölkt | 11 --- --- 10 --- | W 28 44 | 0.0 | 1004 | 0.0
Dienstag - 28.05.2019
| Wetter - | Temperaturen | Wind | Niederschlag | Druck | Sonne
Zeit GZ | Bewölkung | TT MAX MIN TG TM | DD FF FX1 | RR1 RR24 | PPPP | SS1 SS24
01:00 Uhr | stark bewölkt | 10 --- --- 9 --- | NW 26 43 | 0.0 | 1004 | 0.0
02:00 Uhr | wolkig | 10 --- --- 9 --- | NW 26 41 | 0.0 | 1004 | 0.0
03:00 Uhr | wolkig | 10 --- --- 9 --- | NW 26 41 | 0.0 | 1005 | 0.0
04:00 Uhr | wolkig | 10 --- --- 9 --- | NW 26 --- | 0.0 | 1005 | 0.0
05:00 Uhr | wolkig | 10 --- --- 9 --- | NW 24 --- | 0.0 | 1006 | 0.0
06:00 Uhr | wolkig | 10 --- --- 9 --- | NW 22 --- | 0.0 | 1006 | 0.1
07:00 Uhr | wolkig | 10 --- --- 10 --- | NW 22 --- | 0.0 | 1006 | 0.2
08:00 Uhr | wolkig | 10 --- 9 11 --- | NW 24 --- | 0.0 | 1007 | 0.4
09:00 Uhr | wolkig | 11 --- --- 12 --- | NW 24 --- | 0.0 | 1007 | 0.5
10:00 Uhr | wolkig | 11 --- --- 14 --- | NW 24 --- | 0.0 | 1008 | 0.5
11:00 Uhr | wolkig | 11 --- --- 15 --- | NW 26 --- | 0.0 | 1008 | 0.6
12:00 Uhr | wolkig | 11 --- --- 16 --- | NW 28 --- | 0.0 | 1009 | 0.6
13:00 Uhr | wolkig | 11 --- --- 16 --- | NW 28 41 | 0.0 | 1009 | 0.6
14:00 Uhr | wolkig | 11 --- --- 16 --- | NW 30 44 | 0.0 | 1010 | 0.7
15:00 Uhr | wolkig | 12 --- --- 16 --- | NW 32 44 | 0.0 | 1011 | 0.7
16:00 Uhr | wolkig | 11 --- --- 16 --- | NW 33 46 | 0.0 | 1011 | 0.7
17:00 Uhr | wolkig | 11 --- --- 15 --- | NW 33 46 | 0.0 | 1012 | 0.7
18:00 Uhr | wolkig | 11 --- --- 14 --- | NW 33 48 | 0.0 | 1012 | 0.6
19:00 Uhr | wolkig | 10 --- --- 12 --- | NW 33 46 | 0.0 | 1012 | 0.6
20:00 Uhr | wolkig | 10 13 --- 10 --- | NW 33 48 | 0.0 | 1013 | 0.5
21:00 Uhr | wolkig | 9 --- --- 9 --- | NW 32 46 | 0.0 | 1014 | 0.3
22:00 Uhr | wolkig | 9 --- --- 8 --- | NW 32 44 | 0.0 | 1014 | 0.2
23:00 Uhr | wolkig | 9 --- --- 8 | NW 30 44 | 0.0 | 1015 | 0.0
00:00 Uhr | wolkig | 9 --- --- 7 10 | NW 30 43 | 0.0 0.0 | 1015 | 0.0 8.1
Mittwoch - 29.05.2019
| Wetter - | Temperaturen | Wind | Niederschlag | Druck | Sonne
Zeit GZ | Bewölkung | TT MAX MIN TG TM | DD FF FX1 | RR1 RR24 | PPPP | SS1 SS24
01:00 Uhr | wolkig | 9 --- --- 7 --- | NW 28 41 | 0.0 | 1016 | 0.0
02:00 Uhr | wolkig | 8 --- --- 7 --- | NW 28 41 | 0.0 | 1016 | 0.0
03:00 Uhr | wolkig | 8 --- --- 7 --- | NW 28 41 | 0.0 | 1017 | 0.0
04:00 Uhr | wolkig | 8 --- --- 7 --- | NW 28 41 | 0.0 | 1017 | 0.0
05:00 Uhr | wolkig | 8 --- --- 7 --- | NW 28 41 | 0.0 | 1018 | 0.0
06:00 Uhr | wolkig | 8 --- --- 8 --- | NW 26 --- | 0.0 | 1018 | 0.1
07:00 Uhr | wolkig | 9 --- --- 9 --- | NW 26 --- | 0.0 | 1019 | 0.3
08:00 Uhr | wolkig | 9 --- 8 10 --- | NW 24 --- | 0.0 | 1019 | 0.4
09:00 Uhr | wolkig | 10 --- --- 12 --- | NW 24 --- | 0.0 | 1020 | 0.5
10:00 Uhr | wolkig | 10 --- --- 14 --- | W 24 --- | 0.0 | 1020 | 0.5
11:00 Uhr | wolkig | 11 --- --- 15 --- | W 22 --- | 0.0 | 1021 | 0.6
12:00 Uhr | wolkig | 11 --- --- 16 --- | W 22 --- | 0.0 | 1021 | 0.7
13:00 Uhr | wolkig | 12 --- --- 17 --- | W 22 --- | 0.0 | 1021 | 0.7
14:00 Uhr | wolkig | 12 --- --- 18 --- | W 22 --- | 0.0 | 1021 | 0.7
15:00 Uhr | wolkig | 12 --- --- 18 --- | SW 22 --- | 0.0 | 1021 | 0.8
16:00 Uhr | leicht bewölkt | 12 --- --- 18 --- | SW 22 --- | 0.0 | 1021 | 0.8
17:00 Uhr | wolkig | 12 --- --- 17 --- | SW 22 --- | 0.0 | 1021 | 0.8
18:00 Uhr | leicht bewölkt | 12 --- --- 15 --- | SW 22 --- | 0.0 | 1021 | 0.8
19:00 Uhr | leicht bewölkt | 12 --- --- 14 --- | SW 22 --- | 0.0 | 1021 | 0.7
20:00 Uhr | wolkig | 11 13 --- 12 --- | S 22 --- | 0.0 | 1020 | 0.6
21:00 Uhr | wolkig | 11 --- --- 11 --- | S 22 --- | 0.0 | 1020 | 0.4
22:00 Uhr | wolkig | 11 --- --- 10 --- | S 22 --- | 0.0 | 1020 | 0.2
23:00 Uhr | wolkig | 11 --- --- 10 | S 24 --- | 0.0 | 1019 | 0.0
00:00 Uhr | wolkig | 11 --- --- 10 10 | S 26 --- | 0.0 0.0 | 1019 | 0.0 9.6
Donnerstag - 30.05.2019
| Wetter - | Temperaturen | Wind | Niederschlag | Druck | Sonne
Zeit GZ | Bewölkung | TT MAX MIN TG TM | DD FF FX3 | RR3 RR24 | PPPP | SS3 SS24
02:00 Uhr | wolkig | 11 --- --- 10 --- | S 32 48 | 0.0 | 1017 | 0.0
05:00 Uhr | stark bewölkt | 12 --- --- 10 --- | S 37 56 | 0.0 | 1016 | 0.0
08:00 Uhr | leichter Regen | 13 --- 10 13 --- | S 39 57 | 1.5 | 1015 | 0.2
11:00 Uhr | leichter Regen | 13 --- --- 15 --- | SW 35 56 | 0.8 | 1015 | 0.4
14:00 Uhr | leichter Regen | 13 --- --- 16 --- | SW 33 56 | 0.6 | 1016 | 0.5
17:00 Uhr | stark bewölkt | 13 --- --- 14 --- | W 28 48 | 0.7 | 1018 | 0.6
20:00 Uhr | stark bewölkt | 12 15 --- 12 --- | W 22 43 | 0.0 | 1018 | 0.5
23:00 Uhr | stark bewölkt | 11 --- --- 11 12 | W 20 --- | 0.0 3.6 | 1019 | 0.1 2.3
Freitag - 31.05.2019
| Wetter - | Temperaturen | Wind | Niederschlag | Druck | Sonne
Zeit GZ | Bewölkung | TT MAX MIN TG TM | DD FF FX3 | RR3 RR24 | PPPP | SS3 SS24
02:00 Uhr | bedeckt | 11 --- --- 10 --- | W 20 --- | 0.0 | 1019 | 0.0
05:00 Uhr | bedeckt | 11 --- --- 11 --- | W 22 --- | 0.0 | 1018 | 0.0
08:00 Uhr | bedeckt | 12 --- 10 12 --- | W 20 --- | 0.0 | 1019 | 0.1
11:00 Uhr | stark bewölkt | 13 --- --- 15 --- | W 24 --- | 0.0 | 1020 | 0.5
14:00 Uhr | wolkig | 14 --- --- 16 --- | W 24 --- | 0.0 | 1021 | 0.7
17:00 Uhr | wolkig | 13 --- --- 16 --- | W 22 --- | 0.0 | 1022 | 0.7
20:00 Uhr | wolkig | 12 15 --- 13 --- | NW 20 --- | 0.0 | 1022 | 0.8
23:00 Uhr | wolkig | 11 --- --- 11 12 | NW 18 --- | 0.0 0.0 | 1023 | 0.3 3.2
Samstag - 01.06.2019
| Wetter - | Temperaturen | Wind | Niederschlag | Druck | Sonne
Zeit GZ | Bewölkung | TT MAX MIN TG TM | DD FF FX3 | RR3 RR24 | PPPP | SS3 SS24
02:00 Uhr | stark bewölkt | 12 --- --- 10 --- | W 18 --- | 0.0 | 1023 | 0.0
05:00 Uhr | wolkig | 11 --- --- 10 --- | W 18 --- | 0.0 | 1023 | 0.0
08:00 Uhr | wolkig | 13 --- 11 14 --- | SW 20 --- | 0.0 | 1023 | 0.8
11:00 Uhr | wolkig | 14 --- --- 18 --- | SW 22 --- | 0.0 | 1023 | 1.4
14:00 Uhr | wolkig | 15 --- --- 20 --- | SW 20 --- | 0.0 | 1023 | 1.7
17:00 Uhr | wolkig | 15 --- --- 19 --- | W 20 --- | 0.0 | 1022 | 1.5
20:00 Uhr | wolkig | 14 16 --- 15 --- | W 17 --- | 0.0 | 1021 | 1.5
23:00 Uhr | wolkig | 13 --- --- 12 13 | SW 17 --- | 0.0 0.0 | 1021 | 0.5 7.4
Sonntag - 02.06.2019
| Wetter - | Temperaturen | Wind | Niederschlag | Druck | Sonne
Zeit GZ | Bewölkung | TT MAX MIN TG TM | DD FF FX3 | RR3 RR24 | PPPP | SS3 SS24
02:00 Uhr | wolkig | 13 --- --- 12 --- | SW 17 --- | 0.0 | 1020 | 0.0
05:00 Uhr | wolkig | 13 --- --- 12 --- | SW 17 --- | 0.0 | 1019 | 0.1
08:00 Uhr | wolkig | 14 --- 12 15 --- | S 20 --- | 0.0 | 1018 | 0.8
11:00 Uhr | wolkig | 16 --- --- 20 --- | SW 18 --- | 0.0 | 1018 | 1.5
14:00 Uhr | wolkig | 18 --- --- 22 --- | SW 22 --- | 0.0 | 1017 | 1.8
17:00 Uhr | wolkig | 18 --- --- 21 --- | SW 20 --- | 0.0 | 1016 | 1.6
20:00 Uhr | wolkig | 16 19 --- 17 --- | SW 20 --- | 0.0 | 1014 | 1.4
23:00 Uhr | wolkig | 15 --- --- 14 16 | S 20 --- | 0.0 0.0 | 1014 | 0.5 7.6
Montag - 03.06.2019
| Wetter - | Temperaturen | Wind | Niederschlag | Druck | Sonne
Zeit GZ | Bewölkung | TT MAX MIN TG TM | DD FF FX3 | RR3 RR24 | PPPP | SS3 SS24
02:00 Uhr | wolkig | 15 --- --- 14 --- | S 20 --- | 0.0 | 1014 | 0.0
05:00 Uhr | wolkig | 14 --- --- 13 --- | S 22 --- | 0.0 | 1013 | 0.1
08:00 Uhr | wolkig | 15 --- 14 16 --- | SW 24 --- | 0.0 | 1012 | 0.8
11:00 Uhr | wolkig | 17 --- --- 20 --- | SW 22 --- | 0.0 | 1013 | 1.5
14:00 Uhr | wolkig | 18 --- --- 22 --- | SW 24 --- | 0.0 | 1013 | 1.7
17:00 Uhr | wolkig | 18 --- --- 21 --- | SW 24 --- | 0.0 | 1013 | 1.7
20:00 Uhr | wolkig | 16 19 --- 17 --- | W 20 --- | 0.0 | 1012 | 1.6
23:00 Uhr | wolkig | 15 --- --- 14 16 | NW 20 --- | 0.0 0.0 | 1013 | 0.5 7.8
Dienstag - 04.06.2019
| Wetter - | Temperaturen | Wind | Niederschlag | Druck | Sonne
Zeit GZ | Bewölkung | TT MAX MIN TG TM | DD FF FX3 | RR3 RR24 | PPPP | SS3 SS24
02:00 Uhr | wolkig | 14 --- --- 13 --- | NW 20 --- | 0.0 | 1012 | 0.0
05:00 Uhr | wolkig | 14 --- --- 13 --- | NW 20 --- | 0.0 | 1012 | 0.1
08:00 Uhr | wolkig | 15 --- 13 15 --- | W 20 --- | 0.0 | 1011 | 0.9
11:00 Uhr | wolkig | 17 --- --- 20 --- | W 22 --- | 0.0 | 1011 | 1.5
14:00 Uhr | wolkig | 18 --- --- 22 --- | W 24 --- | 0.0 | 1011 | 1.7
17:00 Uhr | wolkig | 17 --- --- 21 --- | W 26 --- | 0.0 | 1011 | 1.8
20:00 Uhr | wolkig | 16 20 --- 17 --- | W 24 --- | 0.0 | 1011 | 1.5
23:00 Uhr | wolkig | 15 --- --- 14 16 | NW 20 --- | 0.0 0.0 | 1011 | 0.5 7.9
Mittwoch - 05.06.2019
| Wetter - | Temperaturen | Wind | Niederschlag | Druck | Sonne
Zeit GZ | Bewölkung | TT MAX MIN TG TM | DD FF FX3 | RR3 RR24 | PPPP | SS3 SS24
02:00 Uhr | wolkig | 14 --- --- 13 --- | O 20 --- | 0.0 | 1011 | 0.0
05:00 Uhr | wolkig | 13 --- --- 13 --- | NO 20 --- | 0.0 | 1011 | 0.1
08:00 Uhr | wolkig | 15 --- 13 16 --- | N 20 --- | 0.0 | 1011 | 0.7
11:00 Uhr | wolkig | 16 --- --- 20 --- | SW 22 --- | 0.0 | 1011 | 1.3
14:00 Uhr | wolkig | 17 --- --- 22 --- | SW 22 --- | 0.0 | 1012 | 1.5
17:00 Uhr | wolkig | 18 --- --- 20 --- | W 22 --- | 0.0 | 1012 | 1.4
20:00 Uhr | wolkig | 16 19 --- 17 --- | W 22 --- | 0.0 | 1012 | 1.2
23:00 Uhr | wolkig | 14 --- --- 14 16 | W 20 --- | 0.0 0.0 | 1012 | 0.4 6.6
Donnerstag - 06.06.2019
| Wetter - | Temperaturen | Wind | Niederschlag | Druck | Sonne
Zeit GZ | Bewölkung | TT MAX MIN TG TM | DD FF FX3 | RR3 RR24 | PPPP | SS3 SS24
02:00 Uhr | wolkig | 14 --- --- 13 --- | S 20 --- | 0.0 | 1012 | 0.0
05:00 Uhr | wolkig | 14 --- --- 13 --- | S 22 --- | 0.0 | 1012 | 0.1
08:00 Uhr | wolkig | 14 --- 13 15 --- | SW 24 --- | 0.0 | 1012 | 0.7
11:00 Uhr | wolkig | 16 --- --- 19 --- | SW 26 --- | 0.0 | 1013 | 1.3
---:00 Uhr | --- | --- --- --- --- --- | --- --- --- | --- | --- | ---
---:00 Uhr | --- | --- --- --- --- --- | --- --- --- | --- | --- | ---
---:00 Uhr | --- | --- --- --- --- --- | --- --- --- | --- | --- | ---
---:00 Uhr | --- | --- --- --- --- --- | --- --- --- | --- --- | --- | ---


Wetter : Wetter/Bewölkung zum Termin (aktuelle Stunde) TT : Lufttemperatur in Grad Celsius zum Termin MAX : Maximum Lufttemperatur in Grad Celsius letzte 12 Stunden MIN : Minimum Lufttemperatur der vergangenen Nacht in Grad Celsius letzte 12 Stunden TG : Temperatur in 5cm überm Erdboden TM : Tagesmittel Lufttemperatur in Grad Celsius letzte 24 Stunden DD : Windrichtung zum Termin FF : Windgeschwindigkeit zum Termin FX1 : höchste Windspitze im Bezugszeitraum letzte 1 Stunde in km/h FX3 : höchste Windspitze im Bezugszeitraum letzte 3 Stunden in km/h PPPP : reduzierter Luftdruck auf Meereshöhe in hPa zum Termin RR1 : Niederschlagsmenge im Bezugszeitraum letzte 1 Stunde in mm = l/qm RR3 : Niederschlagsmenge im Bezugszeitraum letzte 3 Stunden in mm = l/qm RR24 : Niederschlagsmenge im Bezugszeitraum letzte 24 Stunden in mm = l/qm SS1 : Sonnenscheindauer letzte 1 Stunde SS3 : Sonnenscheindauer letzte 3 Stunden SS24 : Sonnenscheindauer letzte 24 Stunden --- : Wert nicht vorhanden